DW1549 Fauske NO current weather conditions

sailwx.info

Wind from 034

Air temperature -1.1° C
Dewpoint -1.5° C

Last reported at 2016-Dec-05 15:35 UTC.
Time now 2016-Dec-05 16:43 UTC

Location: N 67°16' E 015°25'.
View on Google Maps.

See reports from other nearby stations

  
Tides and Currents Weather Stations Pressure Air Temp Water Temp Dewpoint Dewpoint Depression Visibility Wind Speed Wind Dir Waves Ship Positions
date/time (UTC)wind fromknots sea level pressurealtimeterstation pressurevisibilityair tempwater tempwave heightnotes
2016-Dec-05 15:35 034 -1.1
2016-Dec-05 15:25 034 -1.1
2016-Dec-05 15:05 034 -1.1
2016-Dec-05 14:45 035 -1.1
2016-Dec-05 14:35 035 -0.6
2016-Dec-05 14:25 035 -0.0
2016-Dec-05 14:15 035 -0.0
2016-Dec-05 14:05 035 -0.0
2016-Dec-05 13:55 035 -0.0
2016-Dec-05 13:35 035 -0.6
2016-Dec-05 13:25 036 -0.6
2016-Dec-05 13:05 036 -0.6
2016-Dec-05 12:55 036 -0.6
2016-Dec-05 12:45 037 -0.6
2016-Dec-05 12:25 037 -1.1
2016-Dec-05 12:05 038 -1.1
2016-Dec-05 11:55 038 -1.1
2016-Dec-05 11:45 039 -0.6
2016-Dec-05 11:35 039 -0.6
2016-Dec-05 11:25 039 -0.6
2016-Dec-05 11:15 039 -0.6
2016-Dec-05 11:05 039 -0.6
2016-Dec-05 10:35 039 -0.0
2016-Dec-05 10:25 041 -0.0
2016-Dec-05 10:05 041 -0.0
2016-Dec-05 09:55 041 -0.6
2016-Dec-05 09:45 041 -0.6
2016-Dec-05 09:35 042 -0.6
2016-Dec-05 09:25 042 -0.6
2016-Dec-05 09:05 043 -0.6
2016-Dec-05 08:45 043 -0.6
2016-Dec-05 08:15 043 -0.6
2016-Dec-05 07:55 043 -0.6
2016-Dec-05 07:35 043 -0.6
2016-Dec-05 07:25 043 -0.6
2016-Dec-05 07:05 043 -0.0
2016-Dec-05 06:55 043 -0.6
2016-Dec-05 06:45 043 -0.0
2016-Dec-05 06:35 045 -0.0
2016-Dec-05 06:15 047 -0.0
2016-Dec-05 05:55 047 -0.0
2016-Dec-05 05:45 047 -0.0
2016-Dec-05 05:25 043 0.6
2016-Dec-05 05:15 041 -0.0
2016-Dec-05 05:05 042 -0.0
2016-Dec-05 04:55 041 -0.0
2016-Dec-05 04:45 037 -0.0
2016-Dec-05 04:35 037 0.6
2016-Dec-05 04:15 043 0.6
2016-Dec-05 04:05 033 0.6
2016-Dec-05 03:55 011 0.6
2016-Dec-05 03:45 011 0.6
2016-Dec-05 03:35 011 0.6
2016-Dec-05 03:15 011 0.6
2016-Dec-05 03:05 011 0.6
2016-Dec-05 02:55 011 0.6
2016-Dec-05 02:45 022 0.6
2016-Dec-05 02:35 011 0.6
2016-Dec-05 02:25 011 0.6
2016-Dec-05 02:15 011 0.6
2016-Dec-05 02:05 011 0.6
2016-Dec-05 01:55 011 0.6
2016-Dec-05 01:45 011 0.6
2016-Dec-05 01:35 011 0.6
2016-Dec-05 01:25 011 1.1
2016-Dec-05 01:15 227 1.1
2016-Dec-05 01:05 011 1.1
2016-Dec-05 00:45 011 1.1
2016-Dec-05 00:35 011 1.1
2016-Dec-05 00:25 011 1.1
2016-Dec-05 00:15 011 1.1
2016-Dec-05 00:05 011 1.1
2016-Dec-04 23:55 262 1.1
2016-Dec-04 23:45 267 1.7
2016-Dec-04 23:35 243 1.7
2016-Dec-04 23:25 241 1.7
2016-Dec-04 22:45 213 2.2
2016-Dec-04 22:35 230 1.7
2016-Dec-04 22:25 220 1.7
2016-Dec-04 22:05 306 1.1
2016-Dec-04 21:55 305 0.6
2016-Dec-04 21:35 307 0.6
2016-Dec-04 21:05 305 0.6
2016-Dec-04 20:55 305 0.6
2016-Dec-04 20:35 301 0.6
2016-Dec-04 20:25 300 0.6
2016-Dec-04 20:15 301 0.6
2016-Dec-04 20:05 317 0.6
2016-Dec-04 19:45 033 0.6
2016-Dec-04 19:25 166 0.6
2016-Dec-04 19:15 164 0.6
2016-Dec-04 19:05 167 0.6
2016-Dec-04 18:45 166 0.6
2016-Dec-04 18:35 167 -0.0
2016-Dec-04 18:25 167 0.6
2016-Dec-04 18:05 166 0.6
2016-Dec-04 17:55 166 0.6
2016-Dec-04 17:45 165 0.6
2016-Dec-04 17:25 168 0.6
2016-Dec-04 17:15 168 0.6
2016-Dec-04 17:05 168 0.6
2016-Dec-04 16:45 163 0.6
2016-Dec-04 16:25 163 0.6
2016-Dec-04 16:15 164 0.6
2016-Dec-04 16:05 165 0.6
2016-Dec-04 15:45 164 0.6
2016-Dec-04 15:35 172 0.6
2016-Dec-04 15:25 149 0.6
2016-Dec-04 15:15 149 0.6
2016-Dec-04 15:05 149 0.6
2016-Dec-04 14:55 149 1.1
2016-Dec-04 14:45 149 1.1
2016-Dec-04 14:35 149 1.1
2016-Dec-04 14:05 150 1.1
2016-Dec-04 13:55 150 1.1
2016-Dec-04 13:35 150 1.1
2016-Dec-04 13:25 150 1.1
2016-Dec-04 13:05 150 1.1
2016-Dec-04 12:45 150 1.1
2016-Dec-04 12:35 150 1.1
2016-Dec-04 12:25 151 1.1
2016-Dec-04 12:15 151 1.1
2016-Dec-04 12:05 151 1.1
2016-Dec-04 11:45 151 1.7
2016-Dec-04 11:35 149 1.7
2016-Dec-04 11:25 149 1.7
2016-Dec-04 11:15 189 1.7
2016-Dec-04 10:55 145 3 gusting 10 1.7
2016-Dec-04 10:45 141 4 gusting 8 1.7
2016-Dec-04 10:35 139 2 gusting 7 1.7
2016-Dec-04 10:15 128 2 gusting 8 1.1
2016-Dec-04 10:05 122 9 gusting 12 0.6
2016-Dec-04 09:55 132 1 gusting 7 0.6
2016-Dec-04 09:45 130 -0.0
2016-Dec-04 09:35 132 0 gusting 7 -0.0
2016-Dec-04 09:25 139 4 gusting 6 -0.0
2016-Dec-04 09:15 143 -0.0
2016-Dec-04 07:55 124 7 gusting 12 -0.6
2016-Dec-04 07:45 125 8 gusting 12 -0.6
2016-Dec-04 07:25 114 6 gusting 14 -1.1
2016-Dec-04 07:15 102 9 gusting 15 -1.1
2016-Dec-04 07:05 112 10 gusting 17 -1.1
2016-Dec-04 06:55 119 8 gusting 17 -1.7
2016-Dec-04 06:35 102 12 gusting 19 -1.7
2016-Dec-04 06:25 118 10 gusting 19 -1.7
2016-Dec-04 06:15 123 12 gusting 17 -1.7
2016-Dec-04 06:05 134 11 gusting 19 -1.7
2016-Dec-04 05:45 122 10 gusting 19 -2.2
2016-Dec-04 05:35 119 12 gusting 19 -2.2
2016-Dec-04 05:15 127 13 gusting 20 -2.2
2016-Dec-04 05:05 128 13 gusting 20 -2.2
2016-Dec-04 04:05 130 15 gusting 22 -2.2
2016-Dec-04 03:55 131 12 gusting 19 -2.2
2016-Dec-04 03:25 140 14 gusting 21 -2.2
2016-Dec-04 03:05 140 13 gusting 19 -2.8
2016-Dec-04 02:55 134 13 gusting 26 -2.8
2016-Dec-04 02:45 143 15 gusting 24 -2.8
2016-Dec-04 02:35 136 17 gusting 24 -2.8
2016-Dec-04 02:25 134 14 gusting 22 -2.8
2016-Dec-04 02:05 152 13 gusting 22 -2.8
2016-Dec-04 01:55 145 13 gusting 20 -2.8
2016-Dec-04 01:45 149 12 gusting 19 -2.8
2016-Dec-04 01:35 139 14 gusting 26 -3.3
2016-Dec-04 01:15 141 17 gusting 27 -3.3
2016-Dec-04 01:05 132 15 gusting 25 -3.3
2016-Dec-04 00:55 132 14 gusting 22 -3.3
2016-Dec-04 00:45 144 13 gusting 22 -3.3
2016-Dec-04 00:35 148 13 gusting 21 -3.3
2016-Dec-04 00:25 139 12 gusting 19 -3.3
2016-Dec-04 00:15 128 11 gusting 22 -3.3
2016-Dec-04 00:05 139 15 gusting 21 -3.3
2016-Dec-03 23:55 144 13 gusting 17 -3.3
2016-Dec-03 23:35 137 5 gusting 10 -2.8
2016-Dec-03 23:25 177 4 gusting 10 -2.8
2016-Dec-03 22:55 177 5 gusting 13 -2.2
2016-Dec-03 22:45 193 6 gusting 10 -2.2
2016-Dec-03 22:35 186 4 gusting 10 -1.7
2016-Dec-03 22:25 163 2 gusting 8 -2.2
2016-Dec-03 22:15 189 4 gusting 10 -2.2
2016-Dec-03 22:05 166 4 gusting 8 -1.7
2016-Dec-03 21:55 164 5 gusting 11 -2.2
2016-Dec-03 21:35 182 6 gusting 12 -2.2
2016-Dec-03 21:25 199 5 gusting 11 -2.2
2016-Dec-03 21:15 168 5 gusting 11 -2.2
2016-Dec-03 21:05 162 5 gusting 12 -2.2
2016-Dec-03 20:55 145 6 gusting 13 -2.2
2016-Dec-03 20:45 166 6 gusting 14 -2.2
2016-Dec-03 20:35 153 7 gusting 14 -2.2
2016-Dec-03 20:25 146 10 gusting 19 -2.2
2016-Dec-03 20:05 143 6 gusting 13 -2.8
2016-Dec-03 19:35 153 5 gusting 12 -3.3
2016-Dec-03 19:25 154 6 gusting 15 -3.3
2016-Dec-03 19:15 158 6 gusting 13 -3.3
2016-Dec-03 19:05 154 3 gusting 12 -3.3
2016-Dec-03 18:55 159 5 gusting 10 -3.9
2016-Dec-03 18:35 178 5 gusting 10 -3.9
2016-Dec-03 18:15 155 5 gusting 12 -3.9
2016-Dec-03 18:05 155 6 gusting 12 -3.9
2016-Dec-03 17:55 149 7 gusting 14 -3.9
2016-Dec-03 17:45 143 6 gusting 12 -4.4
2016-Dec-03 17:35 136 8 gusting 15 -4.4
2016-Dec-03 17:05 166 7 gusting 12 -4.4
2016-Dec-03 16:55 152 6 gusting 13 -4.4
2016-Dec-03 16:35 153 6 gusting 10 -5.0
2016-Dec-03 16:15 146 7 gusting 13 -5.6
2016-Dec-03 16:05 110 1 gusting 7 -5.6